Weather in Yelizavetovka

Russia / Rostov Oblast     46°39′18″N   38°53′42″E
temp.,
°C
wind,
m/s
gust,
m/s
humid.,
%
clouds,
%
prec.,
mm/h
press.,
hPa
HPBL,
m
11 may, tue
tue1100:00+8wnw91391100 4.9 10121195
03:00+9w81293100 7.4 1009798
06:00+8nnw71096100 0.7 1008721
09:00+8nne578999 1.3 1010674
12:00+9ne4475100 0.3 1010830
15:00+12nne126276 0.6 10101146
18:00+12ssw126867 1.1 1011624
21:00+7se479744 1.8 1013158
12 may, wed
wed1200:00+7sse489832 0.3 1013240
03:00+7sse5109648 0.3 1014388
06:00+8se5109397 0.0 1015477
09:00+11sse7127996 0.1 1016993
12:00+13sse7971100 0.0 10161052
15:00+15s5770100 0.1 10161039
18:00+11nne1194100 2.4 101521
21:00+11ne339384 3.3 101447
13 may, thu
thu1300:00+10ne22925 0.0 101421
03:00+10e33925 0.0 101333
06:00+11e35925 0.0 101395
09:00+17ese46755 0.0 1014477
12:00+22ese446033 0.0 1013976
15:00+23ese555692 0.0 10121026
18:00+22ese367064 0.0 1012279
21:00+17e4686100 0.0 101387
14 may, fri
fri1400:00+16e410923 0.0 1012168
03:00+15e412924 0.0 1011204
06:00+15ese514814 0.0 1011259
09:00+22se59665 0.0 1011457
12:00+26se67586 0.0 1011723
15:00+28se455625 0.0 1010941
18:00+26ese46715 0.0 1010283
21:00+20ese34895 0.0 101049
15 may, sat
sat1500:00+19ssw11900 0.0 101011
03:00+16nw23853 0.2 101148
06:00+17w348355 0.0 101271
09:00+21wnw346694 0.1 1013343
12:00+24w3355100 0.0 1014805
15:00+25w3350100 0.0 10131059
18:00+22nw3471100 0.0 1013151
21:00+17wnw227188 0.0 101321